{"data":{"norad_id":62222,"epoch":"2026-05-25T02:48:57.928032Z","epoch_age_seconds":65049,"freshness":"FRESH","line1":"1 62222U 24231E   26145.11733713  .00127720  00000+0  10414-2 0  9990","line2":"2 62222  53.1571  84.6275 0001169  48.7408 311.3710 15.69744690 85413","mean_motion":15.6974469,"eccentricity":0.0001169,"inclination_deg":53.1571,"raan_deg":84.6275,"arg_perigee_deg":48.7408,"mean_anomaly_deg":311.371,"bstar":0.0010414,"rev_number":8541,"period_min":91.734662915152,"perigee_km":358.83983807852,"apogee_km":360.41512741459,"semimajor_km":6737.7644827466,"source":"CELESTRAK","updated_at":"2026-05-25T13:38:19.613782Z"}}